ECMWFFLT1_con_mucape_021.txt.gz
CAPE
0 0 0 0 0 0 0 4 12 158 154 456 539 556 458 543 780 762 606 561 463 673 838 714 924 1199 976 758 530 707 467 402 385 475 99 443 350 520 623 564 604 493 377 244 137 0 0 0 0 0 0 0 0 0 0 0 0 0 0 0 0 0 0
0 0 0 0 0 7 125 78 0 20 0 0 1 50 131 108 148 126 386 485 568 577 681 546 658 1036 1078 728 606 511 648 482 510 255 386 444 696 702 706 729 772 457 351 431 427 45 8 0 0 0 0 0 0 0 0 0 0 0 0 0 0 0 0
229 0 0 0 0 0 0 25 5 11 78 34 5 24 59 136 86 10 1 20 59 387 634 255 626 785 798 724 721 685 492 593 645 388 421 318 667 646 666 645 758 352 487 530 391 103 0 0 0 0 0 0 0 0 0 0 0 0 0 0 0 0 0
0 0 0 0 0 0 0 0 1 22 0 1 10 38 17 37 70 104 29 14 4 82 107 105 434 451 582 640 614 665 638 864 842 570 422 316 351 602 740 727 698 387 366 400 433 25 1 0 0 0 0 0 0 0 0 0 0 0 0 0 0 0 0
0 0 0 0 0 0 0 17 18 12 14 0 0 0 22 57 63 43 27 25 71 24 294 487 601 616 578 559 541 699 855 786 710 579 530 435 368 474 632 698 699 467 300 196 340 36 0 0 0 0 0 0 0 0 0 0 0 0 0 0 0 0 0
0 0 0 0 0 0 0 2 16 5 0 0 0 4 111 102 89 58 27 7 4 18 43 339 526 711 580 522 562 721 773 749 759 573 410 433 306 295 300 363 545 538 314 135 183 86 10 0 0 0 0 0 0 0 0 0 0 0 0 0 0 0 0
0 0 0 1 0 0 0 0 0 0 1 0 0 0 49 6 0 6 6 10 9 0 35 474 634 648 633 656 598 563 578 589 355 76 13 0 0 104 132 135 171 112 108 0 27 64 32 0 0 0 0 0 0 0 0 0 0 0 0 0 0 0 0
0 0 0 0 0 0 0 5 15 0 0 0 0 0 0 0 0 0 7 33 16 5 19 196 358 408 462 430 125 65 348 210 0 0 0 0 0 0 0 0 0 0 0 0 0 1 28 0 0 0 0 0 0 0 0 0 0 0 0 0 0 0 0
33 0 0 0 0 0 44 20 1 0 0 0 0 0 0 0 0 0 0 0 0 0 0 0 0 0 176 56 0 0 187 160 0 0 0 0 0 0 0 0 0 0 0 0 0 0 0 0 0 0 0 0 0 0 0 0 0 0 0 0 0 0 0
0 0 0 0 28 64 12 0 0 0 0 0 0 0 0 0 0 0 0 0 0 0 0 0 0 0 0 0 0 0 0 0 0 0 0 0 0 0 0 0 0 0 0 0 0 0 0 0 0 0 0 0 0 0 0 0 0 0 0 0 0 0 0
0 0 0 0 0 0 0 0 0 0 0 0 0 0 0 0 0 3 0 0 0 0 0 0 0 0 0 0 0 0 0 0 0 0 0 0 0 0 0 0 0 0 0 0 0 0 0 0 0 0 0 0 0 0 0 0 0 0 0 0 0 0 0
1 0 0 0 0 0 0 0 0 0 0 0 0 0 0 0 0 0 0 0 0 0 0 0 0 0 0 0 0 0 0 0 0 0 0 0 0 0 0 0 0 0 0 0 0 0 0 0 0 0 0 0 0 0 0 0 0 0 0 0 0 0 0
0 0 0 0 0 0 0 0 0 0 0 0 0 0 0 0 0 0 0 0 0 0 0 0 0 0 0 0 0 0 0 0 0 0 0 0 0 0 0 0 0 0 0 0 0 0 0 0 0 0 0 0 0 0 0 0 0 0 0 0 0 0 0
0 0 0 0 0 0 0 0 0 0 0 0 0 0 0 0 0 0 0 0 0 0 0 0 0 0 0 0 0 0 0 0 0 0 0 0 0 0 0 0 0 0 0 0 0 0 0 0 0 0 0 0 0 0 0 0 0 0 0 0 0 0 0
0 0 0 0 0 0 0 0 0 0 0 0 0 0 0 0 0 0 0 0 0 0 0 0 0 0 0 0 0 0 0 0 0 0 0 0 0 0 0 0 0 0 0 0 0 0 0 0 0 0 0 0 0 0 0 0 0 0 0 0 0 0 0
0 0 120 211 228 206 173 0 0 0 0 0 0 0 0 0 0 0 0 0 0 0 0 0 0 0 0 0 0 0 0 0 0 0 0 0 0 0 0 0 0 0 0 0 0 0 0 0 0 0 0 0 0 0 0 0 0 0 0 0 0 0 0
478 473 430 390 359 312 231 0 0 0 0 0 0 0 0 0 0 0 0 0 0 0 0 0 0 0 0 0 0 0 0 0 0 0 0 0 0 0 0 0 0 0 0 0 0 0 0 0 0 0 0 0 0 0 0 0 0 0 0 0 0 0 0
606 570 593 504 497 371 0 0 0 0 0 0 0 0 0 0 0 0 0 0 0 0 0 0 0 0 0 0 0 0 0 0 0 0 0 0 0 0 0 0 0 0 0 0 0 0 0 0 0 0 0 0 0 0 0 0 0 0 0 0 0 0 0
635 562 475 524 477 177 0 0 0 0 0 0 0 0 0 0 0 0 0 0 0 0 0 0 0 0 0 0 0 0 0 0 0 0 0 0 0 0 0 0 0 0 0 0 0 0 0 0 0 0 0 0 0 0 0 0 0 0 0 0 0 0 0
614 454 418 375 146 0 0 0 0 0 0 0 0 0 0 0 0 0 0 0 0 0 0 0 0 0 0 0 0 0 0 2 7 0 0 0 0 0 0 0 0 0 0 0 0 0 0 0 0 0 0 0 0 0 0 0 0 0 0 0 0 0 0
593 481 424 489 450 256 26 16 10 7 8 0 0 0 0 0 0 0 0 0 0 0 0 0 0 0 0 0 0 4 0 8 6 34 0 66 5 0 17 14 2 2 0 0 0 0 0 0 0 0 0 0 0 0 0 0 0 0 0 0 0 0 0
914 782 473 400 415 482 437 280 198 70 101 61 0 0 0 0 0 0 0 0 0 0 0 0 0 0 0 0 0 0 4 0 0 189 199 275 280 264 162 0 0 0 165 248 89 18 93 138 14 0 0 0 0 0 0 0 0 0 0 0 0 0 0
808 652 596 534 461 430 389 339 465 397 158 115 52 0 0 0 0 0 0 0 0 0 0 0 0 0 0 0 0 1 65 12 29 178 336 360 345 340 256 9 0 9 0 0 0 0 0 0 1 0 0 0 0 0 0 0 0 0 0 0 0 0 0
634 612 576 606 592 476 433 557 504 496 443 511 312 277 309 53 50 4 0 0 0 0 0 0 0 0 0 0 0 15 86 186 287 196 375 356 409 410 393 1 0 0 0 0 0 0 0 0 0 0 0 0 0 0 0 0 0 0 0 0 0 0 0
543 612 558 530 551 475 466 482 510 532 513 568 610 504 294 357 376 192 125 35 4 1 0 0 0 0 0 0 7 298 421 440 490 93 396 376 392 429 389 300 154 0 0 0 0 0 0 0 0 0 0 0 0 0 0 0 0 0 0 0 0 0 0
232 275 399 464 562 472 432 385 473 591 629 810 721 729 563 318 407 579 467 297 28 2 0 0 0 0 0 0 27 434 548 546 576 563 458 36 0 364 325 0 28 1 19 25 138 0 0 0 0 0 0 0 0 0 0 0 0 0 0 0 0 0 0
142 153 114 264 443 498 497 587 551 581 715 812 674 620 664 588 451 466 563 594 564 425 453 390 0 0 0 0 534 584 619 650 662 651 642 586 499 258 0 0 0 9 2 18 0 294 389 397 37 0 0 0 0 0 0 0 0 0 0 0 0 0 0
20 41 0 0 0 1 241 255 604 738 685 655 622 649 688 728 655 490 493 598 567 517 540 509 469 170 0 0 475 653 688 723 723 720 677 709 692 573 479 347 0 0 0 0 0 0 325 435 435 330 0 0 0 0 0 0 0 0 0 0 0 0 0
0 0 0 0 0 0 0 0 0 0 432 579 658 669 647 634 671 734 704 638 624 593 559 513 501 512 498 438 368 577 669 699 733 716 660 525 227 116 3 13 6 0 0 0 0 1 0 94 179 70 0 87 30 0 0 0 0 0 0 0 0 0 0
0 0 0 0 0 0 0 0 0 0 0 0 157 857 791 726 701 711 743 762 724 638 609 602 537 536 559 566 490 413 518 585 606 575 514 304 8 132 84 2 0 0 0 0 0 0 0 0 2 68 140 74 0 0 0 0 0 0 0 0 0 0 0
0 0 0 0 0 0 0 0 0 0 0 0 0 0 0 124 624 730 777 795 740 701 709 680 694 684 603 554 526 423 70 468 511 490 423 262 0 0 0 0 16 0 20 2 1 53 114 38 0 0 0 0 0 0 0 0 0 0 0 0 0 0 0
0 0 0 0 0 1 3 4 2 0 0 0 0 0 0 0 233 606 766 767 765 752 700 654 654 659 672 654 588 527 489 383 243 393 322 0 0 11 44 118 14 78 32 2 11 53 0 29 0 0 0 0 0 0 0 0 0 0 0 0 0 0 0
0 0 0 1 1 0 0 0 0 0 0 0 0 0 0 0 0 152 624 740 763 741 662 633 574 551 555 538 502 469 423 385 0 394 228 0 0 0 0 0 0 3 27 41 36 28 3 168 145 0 0 0 2 3 0 0 0 0 0 0 0 0 0
0 0 0 0 0 0 0 0 0 0 0 0 0 0 0 0 0 0 94 541 569 559 545 524 516 522 502 464 438 442 427 433 207 0 0 0 0 0 0 0 0 0 33 33 10 4 22 1 30 0 0 0 0 0 0 0 0 0 0 0 0 0 0
0 0 0 0 0 0 0 0 0 0 0 0 0 0 0 0 0 0 0 0 450 524 556 574 501 450 421 411 417 421 442 464 334 316 24 23 19 0 0 0 0 0 0 10 9 14 60 36 66 4 4 0 0 0 0 0 0 0 0 0 0 0 0
0 0 0 0 0 0 0 0 0 0 0 0 0 0 0 0 0 0 0 0 0 404 526 499 360 222 98 275 332 380 456 559 518 457 398 335 166 0 0 16 6 0 9 3 1 0 0 41 71 65 28 0 0 0 0 0 0 0 0 0 0 0 0
0 0 0 0 0 0 0 0 0 0 0 0 0 0 0 0 0 0 0 0 0 0 256 340 268 209 178 237 310 418 527 556 491 428 353 232 0 0 20 11 2 0 8 1 2 0 0 34 58 55 41 22 0 0 0 0 0 0 0 0 0 0 0

ECMWFFLT1_con_mucape_024.txt.gz
CAPE
333 312 455 508 523 590 550 490 432 389 421 473 457 446 514 548 584 626 581 654 680 876 1244 1083 1029 1126 1092 1138 1158 906 701 519 512 607 639 484 507 438 510 390 110 0 0 0 0 0 0 0 0 0 0 0 0 0 0 139 331 162 8 4 0 0 0
190 377 384 398 498 523 464 418 410 404 427 437 394 364 440 552 717 778 664 607 475 589 810 1247 1081 1051 957 832 745 661 634 588 490 502 454 442 389 437 416 326 198 80 3 1 0 0 0 0 0 0 0 0 0 0 0 237 363 315 217 21 0 0 0
236 209 130 29 98 242 266 182 0 0 0 98 334 383 354 334 213 248 375 456 431 560 652 798 1245 1138 958 737 604 630 536 377 145 478 394 303 277 423 431 414 252 148 11 7 2 0 0 0 1 0 0 0 0 0 56 134 82 0 0 0 0 0 0
0 68 17 0 0 0 27 0 0 0 0 0 0 0 0 0 0 0 0 0 50 472 466 440 668 951 995 754 572 572 588 447 435 301 363 390 488 499 425 430 282 179 99 12 2 0 0 0 0 0 0 0 0 0 0 0 0 0 0 0 0 0 0
0 0 0 0 0 0 0 0 0 0 0 0 0 0 0 0 0 0 0 0 304 390 426 640 744 752 769 638 555 540 511 531 519 404 336 298 582 562 519 464 304 219 144 8 28 6 0 0 0 0 0 0 0 0 0 0 0 0 0 0 0 0 0
12 0 0 0 0 0 0 0 0 0 0 0 0 0 0 0 0 0 0 130 398 456 460 464 531 672 698 656 678 714 788 712 567 397 321 322 457 522 573 544 393 256 193 0 0 10 6 0 0 0 0 0 0 0 0 0 0 0 0 0 0 0 0
0 0 0 0 0 0 0 0 0 0 0 0 0 0 0 0 0 0 0 0 0 374 529 558 588 582 656 721 801 764 745 685 575 440 365 341 379 457 553 571 602 370 145 79 0 0 0 0 0 0 0 0 0 0 0 0 0 0 0 0 0 0 0
0 0 0 0 0 0 0 0 0 0 0 0 0 0 0 0 0 0 0 0 0 397 552 616 623 587 608 741 831 783 684 506 442 389 393 340 314 431 512 501 573 510 417 265 0 0 0 0 0 0 0 0 0 0 0 0 0 0 0 0 0 0 0
0 0 0 0 0 0 0 0 0 0 0 0 0 0 0 0 0 0 0 0 0 386 612 657 677 689 674 670 704 720 564 141 0 0 0 0 51 98 82 0 0 0 0 0 0 0 0 0 0 0 0 0 0 0 0 0 0 0 0 0 0 0 0
0 0 0 0 0 0 0 0 0 0 0 0 0 0 0 0 0 0 0 0 0 124 408 514 585 559 535 549 524 466 57 0 0 0 0 0 0 0 0 0 0 0 0 0 0 0 0 0 0 0 0 0 0 0 0 0 0 0 0 0 0 0 0
0 0 0 0 0 0 0 0 0 0 0 0 0 0 0 0 0 0 0 0 0 0 0 0 0 0 0 324 352 108 0 0 0 0 0 0 0 0 0 0 0 0 0 0 0 0 0 0 0 0 0 0 0 0 0 0 0 0 0 0 0 0 0
0 0 0 0 0 0 0 0 0 0 0 0 0 0 0 0 0 0 0 0 0 0 0 0 0 0 0 0 93 0 0 0 0 0 0 0 0 0 0 0 0 0 0 0 0 0 0 0 0 0 0 0 0 0 0 0 0 0 0 0 0 0 0
0 0 0 0 0 0 0 0 0 0 0 0 0 0 0 0 0 0 0 0 0 0 0 0 0 0 0 0 0 0 0 0 0 0 0 0 0 0 0 0 0 0 0 0 0 0 0 0 0 0 0 0 0 0 0 0 0 0 0 0 0 0 0
0 0 0 0 0 0 0 0 0 0 0 0 0 0 0 0 0 0 0 0 0 0 0 0 0 0 0 0 0 0 0 0 0 0 0 0 0 0 0 0 0 0 0 0 0 0 0 0 0 0 0 0 0 0 0 0 0 0 0 0 0 0 0
0 0 0 0 0 0 0 0 0 0 0 0 0 0 0 0 0 0 0 0 0 0 0 0 0 0 0 0 0 0 0 0 0 0 0 0 0 0 0 0 0 0 0 0 0 0 0 0 0 0 0 0 0 0 0 0 0 0 0 0 0 0 0
0 0 0 0 0 0 0 0 0 0 0 0 0 0 0 0 0 0 0 0 0 0 0 0 0 0 0 0 0 0 0 0 0 0 0 0 0 0 0 0 0 0 0 0 0 0 0 0 0 0 0 0 0 0 0 0 0 0 0 0 0 0 0
0 0 12 222 230 154 13 0 0 0 0 0 0 0 0 0 0 0 0 0 0 0 0 0 0 0 0 0 0 0 0 0 0 0 0 0 0 0 0 0 0 0 0 0 0 0 0 0 0 0 0 0 0 0 0 0 0 0 0 0 0 0 0
124 323 359 358 302 258 172 0 0 0 0 0 0 0 0 0 0 0 0 0 0 0 0 0 0 0 0 0 0 0 0 0 0 0 0 0 0 0 0 0 0 0 0 0 0 0 0 0 0 0 0 0 0 0 0 0 0 0 0 0 0 0 0
463 475 347 260 282 282 174 0 0 0 0 0 0 0 0 0 0 0 0 0 0 0 0 0 0 0 0 0 0 0 0 0 0 0 0 0 0 0 0 0 0 0 0 0 0 0 0 0 0 0 0 0 0 0 0 0 0 0 0 0 0 0 0
523 432 399 270 305 262 106 0 0 0 0 0 0 0 0 0 0 0 0 0 0 0 0 0 0 0 0 0 0 0 0 0 0 0 0 0 0 0 0 0 0 0 0 0 0 0 0 0 0 0 0 0 0 0 0 0 0 0 0 0 0 0 0
360 411 348 388 337 212 0 0 0 0 0 0 0 0 0 0 0 0 0 0 0 0 0 0 0 0 0 0 0 0 0 0 0 0 0 0 0 0 0 0 0 0 0 0 0 0 0 0 0 0 0 0 0 0 0 0 0 0 0 0 0 0 0
383 390 332 311 244 244 0 0 0 0 0 0 0 0 0 0 0 0 0 0 0 0 0 0 0 0 0 0 0 0 0 0 0 0 0 0 0 0 0 0 0 0 0 0 0 0 0 0 0 0 0 0 0 0 0 0 0 0 0 0 0 0 0
448 384 412 366 352 346 279 92 0 0 0 0 0 0 0 0 0 0 0 0 0 0 0 0 0 0 0 0 0 0 0 0 0 0 0 0 0 0 0 0 0 1 8 2 0 0 0 0 0 0 0 0 0 0 0 0 0 0 0 0 0 0 0
471 280 374 456 396 441 357 305 327 360 396 0 0 0 0 0 0 0 0 0 0 0 0 0 0 0 0 0 0 0 0 0 0 0 0 0 0 0 0 0 0 0 0 0 0 0 0 0 0 0 0 0 0 0 0 0 0 0 0 0 0 0 0
394 330 247 54 431 502 452 434 405 428 514 559 491 173 0 0 148 0 0 0 0 0 0 0 0 0 0 0 0 0 0 0 0 0 0 0 0 0 0 0 0 0 0 0 0 0 0 0 0 0 0 0 0 0 0 0 0 0 0 0 0 0 0
414 413 348 411 467 506 495 474 441 443 557 618 558 599 619 544 96 229 137 0 0 0 0 0 0 0 0 0 0 0 0 0 0 0 0 0 0 0 0 0 0 0 0 0 0 0 0 0 0 0 0 0 0 0 0 0 0 0 0 0 0 0 1
313 349 324 331 369 401 436 428 417 449 432 535 560 559 563 569 586 519 285 409 344 235 0 0 0 0 0 0 0 0 2 3 1 2 2 251 332 276 0 238 0 0 0 0 0 0 0 0 0 0 0 0 0 0 0 0 0 0 0 0 0 4 4
134 174 182 253 322 352 189 132 144 319 466 510 511 462 484 497 490 437 463 408 440 459 519 484 431 372 68 0 0 0 0 0 0 0 0 278 392 413 385 404 418 403 250 117 292 218 257 171 164 164 109 0 0 0 0 0 0 0 0 0 0 1 3
2 0 0 0 0 0 0 0 87 188 250 326 371 437 434 312 205 339 476 429 536 585 545 524 552 564 543 504 388 196 41 0 0 0 0 340 462 483 480 434 412 423 422 389 239 230 0 13 0 0 0 0 0 0 0 0 0 0 0 0 0 2 0
7 5 0 0 0 0 0 0 0 0 0 0 0 0 0 0 0 0 0 104 477 537 602 624 631 622 588 594 577 542 425 195 269 565 624 616 612 605 596 552 484 372 372 469 203 0 12 8 2 157 21 75 77 1 0 0 0 0 0 0 0 0 0
37 17 2 0 0 0 0 0 0 0 0 0 0 0 0 0 0 0 0 0 0 68 536 598 615 634 633 637 611 647 613 322 295 445 697 806 837 829 811 758 609 469 0 252 0 0 0 1 1 7 7 8 2 0 0 0 0 0 0 4 2 0 0
20 1 3 0 0 0 0 0 0 0 0 0 0 0 0 0 0 0 0 0 0 0 0 342 643 667 660 641 609 579 585 589 601 597 545 573 683 753 783 791 739 639 550 438 44 0 0 0 0 10 14 8 0 0 0 0 0 0 0 3 12 9 0
10 11 6 0 0 0 0 0 0 0 0 0 0 0 0 0 0 0 0 0 0 0 0 0 92 558 640 613 593 601 582 536 528 544 566 569 567 517 473 494 485 444 384 322 136 2 0 0 0 0 0 0 0 0 0 0 0 0 0 0 0 0 0
0 0 0 0 0 0 0 0 0 0 0 0 0 0 0 0 0 0 0 0 0 0 0 0 0 0 447 528 555 535 506 492 502 494 467 448 437 437 419 413 402 392 371 158 0 0 0 91 40 0 9 0 0 0 0 0 0 0 0 0 0 0 0
0 0 0 0 0 0 0 0 0 0 0 0 0 0 0 0 0 0 0 0 0 0 0 0 0 0 0 139 454 450 444 453 471 473 436 424 426 412 414 403 380 372 344 292 17 196 230 190 131 0 5 18 60 2 10 0 0 0 0 0 0 0 0
0 0 0 0 0 0 0 0 0 0 0 0 0 0 0 0 0 0 0 0 0 0 0 0 0 0 0 0 0 125 389 386 380 364 328 324 386 432 411 393 337 260 66 0 77 170 119 88 59 66 78 48 14 0 0 0 0 0 0 0 0 0 0
0 0 0 0 0 0 0 0 0 0 0 0 0 0 0 0 0 0 0 0 0 0 0 0 0 0 0 0 0 0 0 279 346 344 320 276 326 360 440 461 412 354 331 292 239 168 0 8 0 16 62 21 21 10 0 0 0 0 0 0 0 0 0

ECMWFFLT1_con_mucape_030.txt.gz
CAPE
635 704 853 1020 1117 1146 1168 1102 1113 1123 1118 1087 1101 1024 844 656 615 707 670 827 832 1096 930 981 927 858 780 660 510 475 446 449 488 491 557 452 475 416 491 196 0 0 0 0 0 0 0 0 4 0 42 59 138 77 13 0 0 0 0 0 0 0 0
689 832 1003 1086 1082 1072 1149 1013 1004 995 945 923 849 776 622 534 542 594 777 914 968 1106 1000 960 892 895 856 757 577 500 544 516 500 468 451 472 445 423 407 0 0 0 0 0 0 0 0 0 12 4 7 22 0 0 0 0 0 0 0 0 0 0 0
827 962 1044 1044 998 862 744 682 626 624 560 528 523 524 507 467 462 498 565 684 828 1012 1067 956 1042 921 880 955 888 724 682 650 619 630 600 508 413 382 16 338 312 0 0 0 0 0 0 0 4 0 6 16 5 0 0 0 0 0 0 0 0 0 0
962 987 1004 950 738 576 440 385 245 72 0 0 0 383 410 459 487 494 479 555 695 896 1060 1121 1001 1017 1036 964 993 952 809 714 594 638 647 620 518 437 402 376 347 43 0 0 0 0 0 0 0 0 0 0 0 0 5 0 0 0 0 0 0 0 0
927 926 940 774 590 466 353 317 184 0 0 0 0 0 0 0 0 306 575 556 584 794 1083 1170 1058 1110 1168 1073 1070 1050 900 762 662 590 582 618 638 566 480 421 393 325 0 0 0 0 0 0 0 0 0 0 0 0 7 0 0 0 0 0 0 0 0
748 811 787 600 489 392 320 184 0 0 0 0 0 0 0 0 0 0 21 382 473 518 752 1058 1130 1109 1109 990 983 974 787 639 545 498 526 569 620 625 589 488 467 350 0 0 0 0 0 0 0 0 0 0 0 0 0 0 0 0 0 0 0 0 0
584 662 579 446 403 349 302 0 0 0 0 0 0 0 0 0 0 0 0 0 0 462 524 677 804 980 1037 1015 795 694 579 575 410 394 463 459 434 474 539 560 477 300 0 0 0 0 0 0 0 0 0 0 0 0 0 0 0 0 0 0 0 0 0
506 556 475 377 311 0 0 0 0 0 0 0 0 0 0 0 0 0 0 0 0 168 421 436 467 560 768 968 836 608 518 539 463 426 395 379 404 407 417 532 524 317 178 10 0 0 0 0 0 0 0 0 0 0 0 0 0 0 0 0 0 0 0
482 506 471 379 169 0 0 0 0 0 0 0 0 0 0 0 0 0 0 0 0 418 480 549 602 623 698 799 636 476 472 528 550 474 462 359 326 425 472 537 579 456 261 152 30 47 9 0 0 0 0 0 0 0 0 0 0 0 0 0 0 0 0
471 381 403 389 283 0 0 0 0 0 0 0 0 0 0 0 0 0 0 0 98 365 440 460 514 582 628 643 616 568 677 684 617 531 425 346 328 448 618 634 634 564 361 212 128 113 47 0 0 0 0 0 0 0 0 0 0 0 0 0 0 0 0
216 0 0 238 240 0 0 0 0 0 0 0 0 0 0 0 0 0 0 0 0 110 454 530 514 546 642 652 684 699 676 609 501 413 191 0 273 466 490 585 636 531 380 304 237 152 48 0 0 0 0 0 0 0 0 0 0 0 0 0 0 0 0
0 0 0 215 149 0 0 0 0 0 0 0 0 0 0 0 0 0 0 0 69 483 552 567 562 558 612 666 672 599 374 69 0 0 0 0 238 481 578 634 601 644 500 366 324 202 83 6 0 0 0 0 0 0 0 0 0 0 0 0 0 0 0
0 0 0 0 0 0 0 0 0 0 0 0 0 0 0 0 0 0 0 0 46 506 584 584 501 515 513 529 460 0 0 0 0 0 0 0 0 48 62 223 220 404 615 552 351 249 113 0 0 0 0 0 0 0 0 0 0 0 0 0 0 0 0
0 0 0 0 0 0 0 0 0 0 0 0 0 0 0 0 0 0 0 0 0 178 302 0 0 286 286 184 0 0 0 0 0 0 0 0 0 0 0 0 0 0 185 501 449 340 235 0 0 0 0 0 0 0 0 0 0 0 0 0 0 0 0
0 0 0 0 0 0 0 0 0 0 0 0 0 0 0 0 0 0 0 0 0 0 0 0 0 0 204 184 0 0 0 0 0 0 0 0 0 0 0 0 0 0 0 0 140 239 16 0 0 0 0 0 0 0 0 0 0 0 0 0 0 0 0
0 0 0 0 0 0 0 0 0 0 0 0 0 0 0 0 0 0 0 0 0 0 0 0 0 0 0 0 0 0 0 0 0 0 0 0 0 0 0 0 0 0 0 0 0 0 0 0 0 0 0 0 0 0 0 0 0 0 0 0 0 0 0
0 0 0 0 0 0 0 0 0 0 0 0 0 0 0 0 0 0 0 0 0 0 0 0 0 0 0 0 0 0 0 0 0 0 0 0 0 0 0 0 0 0 0 0 0 0 0 0 0 0 0 0 0 0 0 0 0 0 0 0 0 0 0
0 0 0 0 0 0 0 0 0 0 0 0 0 0 0 0 0 0 0 0 0 0 0 0 0 0 0 0 0 0 0 0 0 0 0 0 0 0 0 0 0 0 0 0 0 0 0 0 0 0 0 0 0 0 0 0 0 0 0 0 0 0 0
0 0 0 0 0 0 0 0 0 0 0 0 0 0 0 0 0 0 0 0 0 0 0 0 0 0 0 0 0 0 0 0 0 0 0 0 0 0 0 0 0 0 0 0 0 0 0 0 0 0 0 0 0 0 0 0 0 0 0 0 0 0 0
0 0 0 0 0 0 0 0 0 0 0 0 0 0 0 0 0 0 0 0 0 0 0 0 0 0 0 0 0 0 0 0 0 0 0 0 0 0 0 0 0 0 0 0 0 0 0 0 0 0 0 0 0 0 0 0 0 0 0 0 0 0 0
30 39 29 0 0 0 0 0 0 0 0 0 0 0 0 0 0 0 0 0 0 0 0 0 0 0 0 0 0 0 0 0 0 0 0 0 0 0 0 0 0 0 0 0 0 0 0 0 0 0 0 0 0 0 0 0 0 0 0 0 0 0 0
0 21 28 7 0 0 0 0 0 0 0 0 0 0 0 0 0 0 0 0 0 0 0 0 0 0 0 0 0 0 0 0 0 0 0 0 0 0 0 0 0 0 0 0 0 0 0 0 0 0 0 0 0 0 0 0 0 0 0 0 0 0 0
10 27 26 26 0 0 0 0 0 0 0 0 0 0 0 0 0 0 0 0 0 0 0 0 0 0 0 0 0 0 0 0 0 0 0 0 0 0 0 0 0 0 0 0 0 0 0 0 0 0 0 0 0 0 0 0 0 0 0 0 0 0 0
0 13 0 0 0 0 0 0 0 0 0 0 0 0 0 0 0 0 0 0 0 0 0 0 0 0 0 0 0 0 0 0 0 0 0 0 0 0 0 0 0 0 0 0 0 0 0 0 0 0 0 0 0 0 0 0 0 0 0 0 0 0 0
0 0 0 0 0 0 0 0 0 0 0 0 0 0 0 0 0 0 0 0 0 0 0 0 0 0 0 0 0 0 0 0 0 0 0 0 0 0 0 0 0 0 0 0 0 0 0 0 0 0 0 0 0 0 0 0 0 0 0 0 0 0 0
0 27 0 0 0 0 0 0 11 82 153 131 71 0 0 0 0 0 0 0 0 0 0 0 0 0 0 0 0 0 0 0 0 0 0 0 0 0 0 0 0 0 0 0 0 0 0 0 0 0 0 0 0 0 0 0 0 0 0 0 0 0 0
0 0 0 0 139 64 49 176 223 243 253 303 296 168 125 14 0 0 0 0 0 0 0 0 0 0 0 0 0 0 0 0 0 0 0 0 0 0 0 0 0 0 0 0 0 0 0 0 0 0 0 0 0 0 0 0 0 0 0 0 0 0 0
12 0 0 102 194 227 182 121 193 228 250 300 299 288 215 197 0 0 0 0 0 0 0 0 0 0 0 0 0 0 0 0 0 0 0 0 0 0 0 0 0 0 0 0 0 0 0 0 0 0 0 0 0 0 0 0 0 0 61 162 187 192 0
114 0 62 78 154 205 302 226 183 221 233 271 300 290 288 229 228 161 135 153 154 175 173 177 127 95 0 0 0 175 230 235 330 338 340 267 34 0 0 0 0 0 0 0 0 0 0 0 0 0 0 0 0 0 0 0 127 183 202 218 208 195 7
104 0 2 105 45 192 337 277 191 189 208 222 280 315 315 292 261 248 264 248 207 180 176 171 202 222 247 263 274 300 334 364 383 398 426 445 450 468 479 326 119 0 0 0 0 0 0 0 0 0 0 0 60 56 0 155 235 268 157 192 56 6 0
48 0 0 0 0 74 197 158 140 205 245 253 293 346 328 314 290 268 257 266 274 267 254 242 244 251 255 282 288 305 313 317 338 358 398 426 463 494 508 536 552 561 531 426 222 191 160 0 0 0 233 280 315 340 344 348 357 335 280 189 22 177 184
3 6 3 5 9 7 1 0 51 124 111 59 49 172 265 269 280 265 259 250 238 223 204 27 0 22 116 126 136 222 247 0 194 326 334 350 384 397 422 457 486 509 531 550 534 428 394 430 495 522 516 455 408 388 426 437 401 412 408 204 213 59 26
3 6 0 0 1 8 7 6 37 12 0 5 7 45 0 0 0 0 0 0 0 0 0 0 0 0 0 0 0 0 0 0 0 0 1 1 9 12 254 294 327 344 341 350 364 426 436 446 455 491 498 513 483 315 374 411 372 229 0 0 0 0 0
0 0 0 0 0 0 0 0 0 0 0 0 0 0 0 0 0 0 0 0 0 0 0 0 0 0 0 0 0 0 0 0 0 1 2 1 2 2 2 33 137 200 211 182 162 174 212 243 298 353 390 428 461 427 317 312 276 234 214 105 0 0 0
0 0 0 0 0 0 0 0 0 0 0 0 0 0 0 10 9 5 0 0 0 0 0 0 0 0 0 0 0 0 0 0 0 1 0 1 1 2 3 4 3 1 68 0 0 0 0 0 0 0 0 255 342 379 397 377 319 226 12 1 0 0 0
0 0 0 0 0 0 0 0 0 0 0 0 0 0 1 2 0 1 0 0 0 0 0 0 0 0 0 0 0 0 0 0 0 0 0 0 1 1 2 4 4 4 3 2 0 0 0 0 0 0 0 0 4 278 320 338 324 232 0 0 0 28 21
0 0 0 0 0 0 0 0 0 0 0 0 0 0 0 0 0 0 0 0 0 0 0 0 0 0 0 0 0 0 0 0 0 0 0 0 0 0 1 1 1 0 0 0 0 0 1 0 0 0 0 0 170 205 266 318 312 286 209 138 89 76 100

ECMWFFLT1_con_mucape_033.txt.gz
CAPE
1539 1327 1223 975 930 1134 1178 1087 1142 1201 1230 1064 1025 1002 944 929 894 895 730 592 676 879 765 925 1082 1063 938 908 877 1089 1184 1406 1420 1473 1424 996 665 1060 788 1114 721 729 565 374 384 422 290 121 18 12 5 2 1 0 0 0 0 0 0 0 0 0 0
1589 1379 1099 1047 1127 1109 1147 1121 1005 1064 1097 1062 1002 948 837 801 834 827 750 764 857 805 752 1002 1065 878 1096 1058 899 1013 1054 1030 1164 1312 895 849 940 1193 644 532 463 382 286 612 631 452 318 140 41 46 2 2 0 0 0 0 0 0 0 0 0 0 0
1268 1307 1344 1293 1340 1324 1147 966 886 957 972 956 920 810 727 652 785 929 846 898 1076 913 719 784 855 795 706 980 1010 951 983 1172 1186 790 854 814 941 970 1040 652 398 263 208 295 450 534 433 323 157 10 20 22 8 0 0 0 0 0 0 0 0 0 0
1479 1582 1365 1262 1200 1156 1128 926 918 840 822 1013 994 788 829 665 637 807 835 936 1190 1253 1053 1084 1166 1074 963 784 818 836 795 794 828 710 762 1001 1053 959 761 525 472 342 345 382 412 391 421 391 194 53 19 14 2 0 0 0 0 0 0 0 0 0 0
1542 1735 1805 1609 1417 1233 1198 1081 930 913 896 865 941 965 916 914 788 734 736 871 1018 1289 1316 1437 1384 1406 908 780 754 558 590 539 545 576 496 875 905 938 968 801 723 858 665 504 429 502 461 466 340 102 25 5 0 0 0 0 0 0 0 0 0 0 0
1751 1815 1722 1515 1260 1060 966 951 892 884 862 833 883 794 704 766 1007 1020 951 841 969 1196 1429 1567 1730 1483 1101 1042 862 731 709 575 611 672 670 648 1104 1183 1171 1016 674 496 381 243 426 500 681 645 472 189 45 21 10 0 0 0 0 0 0 0 0 0 0
1683 1721 1555 1353 1138 1096 1010 990 967 894 862 955 844 849 640 450 580 989 1150 1272 1080 958 1114 1446 1536 1539 1268 1059 794 783 960 815 665 703 583 1556 1358 1365 1500 1069 887 334 276 150 440 533 630 608 396 191 30 41 20 0 0 0 0 0 0 0 0 0 0
1394 1481 1438 1352 1129 973 911 1032 1068 1044 973 942 732 723 380 587 600 602 680 972 941 787 797 1015 1202 1327 1403 1126 852 779 775 1094 1092 1145 1146 1118 1250 1203 1277 1183 1098 524 309 152 248 305 391 444 493 265 125 62 11 0 0 0 0 0 0 0 0 0 0
1063 1259 1060 892 1096 1184 883 914 911 882 997 820 621 467 361 553 796 856 795 962 959 983 992 1040 1075 974 1003 1343 1228 1105 1218 657 1115 1045 1117 1048 1214 1283 1283 1250 919 549 339 154 107 336 288 577 591 396 284 56 7 0 0 0 0 0 0 0 0 0 0
966 1054 1037 957 927 783 790 853 813 663 659 848 601 410 208 304 630 974 1023 1036 1133 1157 1165 1106 1143 1204 1260 1348 1270 1197 1103 850 1054 1054 1139 1165 1343 1285 1201 1152 1099 857 413 170 83 312 539 614 514 501 155 48 0 0 0 0 0 0 0 0 0 0 0
892 1049 1038 945 722 526 452 498 537 498 715 685 479 148 206 385 600 526 881 824 827 946 1100 965 865 889 1027 1056 967 1000 894 936 1107 966 1034 1103 1103 1098 1203 1090 1120 834 484 236 111 252 328 484 499 477 314 97 18 0 0 0 0 0 0 0 0 0 0
654 719 771 744 592 614 482 500 586 677 473 320 207 95 149 240 488 515 585 562 597 621 615 645 517 558 702 726 597 656 667 596 736 688 514 699 786 923 1132 1273 1175 1050 520 325 147 96 170 240 456 416 288 140 36 0 0 0 0 1 0 0 0 0 0
455 454 492 514 546 590 463 418 356 349 512 224 203 115 103 184 378 417 338 393 424 502 553 556 542 572 624 633 638 539 522 358 239 253 166 176 332 664 1007 1198 1044 964 518 357 246 145 72 89 192 150 80 64 82 342 106 1 0 0 1 0 0 0 0
505 410 384 508 562 486 330 260 291 387 107 130 23 37 50 83 106 138 152 215 460 520 558 502 498 504 523 508 307 188 0 0 0 0 0 0 260 471 612 727 725 663 567 547 350 222 112 74 33 47 23 16 12 63 38 2 0 4 4 2 2 0 0
351 256 424 416 518 302 230 200 119 36 192 1 0 0 0 24 32 22 38 58 59 42 2 0 0 15 0 0 0 0 0 0 0 0 0 0 0 9 52 83 308 544 635 876 410 293 193 132 8 10 1 2 2 11 38 0 0 0 0 0 0 0 0
121 256 414 407 420 130 94 19 1 142 28 0 0 0 0 0 0 0 0 0 0 0 0 0 0 5 36 8 0 0 0 1 4 3 7 0 0 0 0 0 0 0 117 516 597 372 258 231 53 0 4 0 0 0 0 0 0 0 0 0 0 0 0
178 226 318 311 320 116 20 0 0 24 0 0 0 0 0 0 0 0 0 0 0 0 0 0 0 0 0 5 1 0 0 0 17 83 13 0 0 0 20 25 4 0 0 141 277 490 466 390 185 1 9 1 5 0 0 0 0 0 0 0 0 0 0
173 218 248 200 208 48 6 0 0 0 0 0 0 0 0 0 0 0 0 0 0 0 0 0 0 0 4 34 26 0 0 0 5 8 25 0 0 7 8 85 0 0 32 123 73 108 132 270 208 153 144 1 0 0 0 0 0 0 0 0 0 0 0
0 0 0 0 0 2 0 0 0 0 0 0 0 0 0 0 0 0 0 0 0 0 0 0 0 0 0 0 7 29 9 2 0 0 0 0 0 1 36 6 0 6 80 283 144 136 59 66 18 180 77 8 0 0 0 0 0 0 0 0 0 0 0
0 0 0 0 0 0 0 0 0 0 0 0 0 0 0 0 0 0 0 0 0 0 0 0 0 0 0 0 0 2 5 8 3 5 0 0 0 0 0 0 11 25 80 251 358 224 162 183 159 104 70 138 0 0 0 0 0 0 0 0 0 0 0
0 0 0 0 0 0 0 0 0 0 0 0 0 0 0 0 0 0 0 0 0 0 0 0 0 0 0 0 0 1 4 25 3 13 11 0 0 0 0 0 0 0 17 64 293 410 367 307 163 243 130 50 11 0 2 0 0 0 0 0 0 0 0
0 0 0 4 0 0 0 0 0 0 0 0 2 0 0 0 0 0 0 0 0 0 0 0 0 0 0 0 0 0 2 0 2 1 8 10 8 0 0 0 1 22 29 17 0 56 82 96 285 287 294 100 102 63 66 5 0 0 0 0 0 0 0
0 0 0 0 0 0 0 1 1 0 0 0 0 0 0 0 0 0 0 0 0 0 0 0 0 0 0 0 0 0 4 26 0 6 5 31 64 17 12 7 1 0 0 0 0 0 0 0 0 184 527 246 139 96 96 42 1 0 0 0 0 0 0
0 0 0 0 0 0 0 0 0 0 0 0 0 0 0 0 0 0 0 0 0 0 1 2 0 0 0 0 0 0 0 20 63 109 72 88 68 61 48 0 57 46 0 0 0 0 0 0 0 0 0 2 38 148 127 55 22 39 0 0 0 27 2
1 0 6 17 21 11 0 0 0 0 0 0 0 0 0 0 0 2 1 0 0 0 1 0 0 0 0 0 0 0 0 0 0 13 82 58 40 67 58 156 113 128 88 116 138 34 0 0 0 0 0 0 0 0 0 228 164 244 144 66 145 132 35
2 4 9 9 5 0 0 0 0 0 0 0 0 0 0 0 0 0 0 0 0 0 0 0 0 0 0 0 0 0 0 0 0 1 1 0 2 12 94 137 317 230 31 5 0 48 210 115 0 0 0 0 0 0 0 0 0 215 358 169 126 252 242
2 0 2 0 0 0 0 0 0 0 0 0 0 0 0 0 0 0 0 0 0 0 0 0 0 0 0 0 0 0 0 0 0 0 3 3 31 60 78 70 67 149 285 154 188 247 197 223 196 18 0 0 25 0 0 0 0 0 8 161 267 255 463
0 0 0 0 0 0 0 0 0 0 0 0 0 0 0 0 0 0 0 0 0 0 0 0 0 0 0 0 0 1 36 44 105 91 36 7 4 3 19 49 113 151 240 321 272 148 196 241 214 248 196 216 221 244 12 0 0 0 0 4 217 375 601
0 0 0 0 0 0 0 3 0 0 0 0 0 0 0 0 0 0 0 0 0 0 0 0 0 0 0 0 0 0 0 4 13 84 126 79 42 56 31 43 122 232 336 363 129 0 0 53 153 186 208 243 231 179 74 36 0 0 0 11 75 116 158
2 0 0 1 6 22 32 3 0 0 4 17 41 38 29 26 5 16 20 9 0 0 0 0 0 0 0 0 0 0 0 0 0 0 0 0 145 170 265 277 288 307 338 401 184 81 0 0 16 192 293 392 460 326 100 20 0 0 0 0 0 0 0
1 0 1 1 3 3 2 45 11 0 36 31 39 64 55 60 70 43 37 51 76 94 29 0 0 0 0 0 0 0 0 0 0 0 0 0 37 239 245 251 274 295 334 371 388 377 374 338 255 278 418 456 479 451 347 196 0 0 0 146 231 242 190
1 4 8 18 6 13 0 0 2 9 46 118 161 162 121 79 93 134 150 131 108 121 131 112 83 0 0 0 0 0 0 0 0 0 0 0 0 19 154 162 260 280 288 321 349 368 374 379 384 397 395 525 500 610 667 718 417 397 368 338 308 275 166
0 0 0 1 1 2 1 0 0 0 0 11 2 9 76 86 66 146 153 80 23 26 12 0 0 0 0 0 0 0 0 0 0 0 0 0 0 0 0 0 0 0 0 10 12 236 246 246 225 290 326 347 476 436 686 654 381 381 383 322 78 104 220
0 0 0 0 0 0 0 0 0 0 0 0 0 0 0 0 0 0 7 0 1 1 0 0 0 0 0 0 0 0 0 0 0 0 0 0 0 0 0 0 0 0 0 1 0 0 0 0 64 64 4 72 232 289 247 266 220 256 227 212 183 73 75
2 4 3 0 0 0 0 0 0 0 0 0 0 0 0 0 0 0 0 0 2 0 0 0 0 0 0 0 0 0 0 0 0 0 0 0 0 0 0 0 0 0 0 0 0 0 0 0 0 0 2 28 0 0 0 27 17 21 66 78 77 113 140
0 0 0 0 0 0 0 0 0 0 0 0 0 0 0 0 0 0 0 0 0 0 0 0 0 0 0 0 0 0 0 0 0 0 0 0 0 0 0 0 0 0 0 0 0 1 2 3 2 0 0 0 0 0 3 0 0 0 7 12 50 58 36
0 0 0 0 0 0 0 0 0 0 0 0 0 0 0 0 0 0 0 0 0 0 0 0 0 0 0 0 0 0 0 0 0 0 0 0 0 0 0 0 0 1 0 0 0 0 0 0 0 0 0 0 0 0 0 0 1 0 0 25 36 54 0

ECMWFFLT1_con_mucape_036.txt.gz
CAPE
1746 1702 1938 2110 2042 1952 2121 2009 1931 1955 1821 1688 1528 1541 2017 1710 1702 1674 1630 1496 1322 1373 1414 1573 1681 1638 1450 1320 1410 1344 1212 1390 930 528 879 659 438 336 1126 1218 912 917 682 584 581 336 438 330 49 44 48 1 20 0 0 0 0 0 0 0 0 0 0
1795 1874 1675 1421 1574 1662 2112 1859 1487 1262 1328 1336 1328 1338 1408 1775 1534 1643 1618 1595 1608 1548 1285 1272 1438 1554 1676 1560 1670 1663 1521 1542 1630 924 1090 648 351 1082 892 1262 1116 841 662 1070 748 952 206 315 165 4 2 8 0 0 0 0 0 0 0 0 0 0 0
1717 1628 1589 1614 1610 1632 1499 1416 1400 1315 1311 1323 1359 1251 1133 1022 1043 1754 1634 1649 1771 1617 1348 1317 1569 1788 1898 1918 1863 1776 1562 1597 1608 1531 1203 1500 1352 1223 994 803 669 794 636 862 773 526 300 358 266 15 3 1 0 0 0 0 0 0 0 0 0 0 0
1982 1761 1679 1571 1670 1553 1351 1359 1292 1454 1402 1294 1099 1185 1354 995 1163 1322 1794 1806 1667 1657 1447 1630 1850 1648 1819 1860 1886 1855 1717 1732 1692 1419 1481 1622 1505 1510 883 1007 1170 742 529 573 739 506 506 465 284 86 18 3 0 0 0 0 0 0 0 0 0 0 0
1925 1797 1727 1637 1493 1282 1356 1101 1291 1465 1453 1302 1219 1102 1100 1004 1135 1140 1183 1890 1827 1788 1648 1616 1737 1652 1783 1804 1814 1672 1682 1740 1773 1500 1631 1616 1546 1355 1259 598 775 718 784 392 506 408 467 434 340 244 40 2 0 0 0 0 0 0 0 0 0 0 0
1882 1768 1788 1730 1576 1402 1359 1295 1312 1278 1279 1096 1044 910 939 1221 894 997 1096 953 1498 1807 1572 1419 1433 1326 1443 1583 1693 1604 1668 1661 1538 1597 1611 1679 1520 1557 1084 701 810 867 536 769 794 556 392 302 391 354 29 2 0 0 0 0 0 0 0 0 0 0 0
1670 1594 1722 1653 1582 1467 1376 1307 1068 955 826 826 803 774 692 689 620 773 945 1030 1044 1690 1624 1476 1277 1350 1407 1417 1534 1526 1530 1454 1527 1539 1576 1686 1668 1758 821 630 1356 858 796 781 860 438 499 401 410 330 26 16 0 0 0 0 0 0 0 0 0 0 0
1543 1646 1505 1479 1415 1130 996 936 791 688 724 697 684 694 698 633 639 682 901 1015 1071 1021 1855 1749 1486 1450 1659 1231 1409 1562 1536 1636 1524 1620 1679 1574 1568 1385 637 463 808 789 948 730 870 543 467 481 466 271 32 2 0 0 0 0 0 0 0 0 0 0 0
1419 1328 1316 1166 1077 1033 903 806 810 767 820 672 832 630 652 584 625 639 873 890 1053 963 1120 1640 1826 1583 1300 1582 1424 1430 1713 1421 1731 1759 1640 1291 1382 1372 903 410 524 933 628 766 748 589 393 460 425 103 6 0 0 0 0 0 0 0 0 0 0 0 0
1294 1184 1168 1201 1056 942 879 772 712 803 782 610 616 603 560 444 502 470 553 791 1130 1109 1075 1029 952 1378 1740 1685 1384 1569 1179 1385 1658 1689 1281 1208 1046 969 955 1508 681 1039 872 952 573 607 415 312 330 79 4 0 0 0 0 0 0 0 0 0 0 0 0
1113 1173 1138 1149 968 879 852 793 732 659 528 470 537 519 407 405 374 426 368 682 936 959 1093 876 655 732 1207 1630 1245 1095 946 1458 1614 1682 900 851 1010 1603 1387 1462 926 869 777 646 722 805 321 278 120 57 0 5 0 0 0 0 0 0 0 0 0 0 0
1201 921 821 858 835 798 762 685 631 566 552 438 412 388 325 275 297 282 261 346 486 571 792 855 813 753 764 1099 1661 1389 1666 1650 1615 1854 1650 1610 1680 1534 1735 1647 1444 1150 1121 800 636 518 422 357 114 5 0 0 0 0 0 0 0 0 0 0 0 0 0
1128 1033 990 976 863 807 660 691 643 572 504 308 375 344 272 297 193 202 231 232 447 500 591 762 746 744 848 933 1314 1430 1567 1676 1616 1357 896 1097 1252 1447 1787 1750 1550 1325 1131 784 588 302 235 211 81 0 0 0 0 0 0 0 0 0 0 0 0 0 0
1213 1122 958 904 823 774 681 627 550 519 415 402 330 273 214 200 125 154 167 226 543 698 733 765 662 685 536 948 578 470 675 693 429 312 344 654 606 1269 1592 1600 1632 1560 1264 766 427 272 64 120 43 0 0 0 0 0 0 1 0 0 5 1 0 0 0
1406 1084 1087 866 782 847 736 658 711 504 499 433 278 181 161 154 41 89 136 204 282 290 383 483 595 504 379 422 507 492 347 184 124 112 292 280 810 1166 1661 1628 1545 1756 1275 766 501 54 3 1 0 0 0 0 0 0 0 0 1 3 0 10 1 0 0
1263 1207 1046 817 872 648 645 763 545 533 492 418 325 185 100 0 53 114 126 147 128 184 173 300 275 147 74 62 22 28 41 83 137 176 261 95 17 156 272 654 1238 1591 1435 1356 847 132 3 0 0 0 0 0 0 0 0 0 3 1 0 0 0 0 0
1312 933 827 773 784 780 732 644 561 502 384 297 123 114 0 0 17 109 92 88 114 72 80 126 92 20 0 0 0 0 26 71 55 33 1 0 0 0 22 40 284 1174 1398 1773 1315 370 154 18 1 0 0 0 0 0 0 0 0 20 8 0 0 0 0
1061 770 732 696 865 821 706 596 565 480 371 188 53 7 0 0 0 26 44 13 7 4 7 10 36 61 96 42 0 0 0 1 8 0 0 0 0 2 14 55 43 269 846 1406 1638 902 339 114 2 0 0 0 0 0 0 0 0 0 1 3 2 0 0
1112 995 957 980 992 706 564 533 504 414 124 56 12 0 0 0 0 0 0 0 2 5 1 0 1 0 20 39 27 5 0 0 0 0 0 0 0 3 11 11 396 311 332 323 380 587 413 670 176 6 0 0 0 0 0 0 0 0 0 0 0 0 0
1164 1159 1214 1169 983 555 543 479 330 126 36 8 0 0 0 0 0 0 0 0 0 0 0 0 0 0 0 1 14 29 44 5 0 0 0 0 0 0 0 14 133 295 214 218 478 613 772 772 436 201 7 4 0 0 0 0 0 0 0 0 0 0 0
553 486 427 383 429 571 518 294 79 5 0 0 0 0 0 0 0 0 0 0 0 0 0 0 0 0 0 0 0 10 64 64 17 7 3 0 0 0 0 0 16 23 52 82 139 382 595 301 156 115 21 62 15 0 0 0 0 0 0 2 0 0 0
398 235 153 193 202 151 152 144 38 0 0 0 0 0 0 0 0 0 0 0 0 0 33 150 0 0 0 0 0 0 7 41 51 44 16 0 0 0 0 0 4 40 1239 172 0 396 448 153 736 2 18 49 74 59 32 24 18 2 0 0 0 0 0
208 121 42 44 51 91 147 120 53 0 0 0 0 0 0 0 0 0 0 0 1 42 7 0 0 0 0 0 0 0 0 35 20 7 0 0 0 0 0 0 269 0 0 0 0 0 0 0 0 506 569 261 76 53 49 65 20 15 4 3 6 0 0
0 0 0 0 0 4 12 58 133 262 245 1 90 7 3 0 0 0 0 0 0 0 0 0 0 0 0 0 181 24 6 0 0 3 7 18 12 5 3 0 53 208 73 0 127 0 0 0 0 0 0 0 68 1181 268 35 67 81 38 28 38 25 27
0 0 0 0 0 0 1 0 0 2 16 1 267 335 195 116 72 74 4 0 0 0 0 0 0 0 0 0 0 2 2 4 14 78 90 43 31 22 18 32 80 141 30 1114 413 152 123 0 0 0 0 0 0 0 0 316 504 196 133 113 25 46 73
0 0 0 0 0 0 0 0 0 0 0 1 10 46 113 51 0 0 0 0 0 0 0 0 0 0 0 0 0 26 17 5 6 26 37 20 101 117 258 237 365 238 36 46 0 14 55 358 0 0 0 0 0 0 0 0 0 78 461 356 343 222 198
0 0 0 1 0 0 1 0 0 2 0 0 0 0 0 0 0 0 0 0 0 0 0 0 0 0 0 0 0 58 152 170 164 150 112 145 159 168 168 78 71 154 431 441 135 188 176 203 739 449 130 100 85 449 0 0 0 0 0 173 396 437 478
0 0 0 0 0 0 2 2 1 2 0 0 0 0 0 0 0 0 0 0 0 0 0 0 0 0 0 0 0 15 656 675 370 519 597 865 802 820 777 778 656 438 446 498 722 377 626 506 573 614 687 571 457 329 568 536 194 93 43 61 146 338 452
0 0 3 2 2 0 0 0 0 0 0 0 0 0 0 0 0 0 0 0 0 0 0 0 0 0 0 0 0 10 191 345 506 694 802 903 885 970 1002 1037 1028 1047 1153 902 260 0 0 67 436 749 664 650 554 533 593 714 644 400 824 1237 608 490 806
3 0 4 7 1 0 0 0 0 0 0 0 1 0 0 0 0 0 1 0 0 0 0 0 0 0 0 0 0 0 0 1 26 64 170 124 392 472 483 39 248 759 963 660 449 144 0 0 415 743 826 887 790 705 515 1598 492 0 0 0 0 0 0
2 3 9 7 1 1 1 0 0 0 0 0 2 0 0 0 0 2 8 16 22 25 0 0 0 0 0 0 0 0 0 0 0 0 0 0 0 38 0 0 0 23 286 61 58 0 0 0 245 884 1262 1066 1334 1399 1244 1395 870 553 30 0 0 0 0
0 0 0 1 1 0 0 0 0 0 0 0 0 0 0 0 0 0 10 18 30 44 59 63 73 30 28 12 0 31 0 0 0 0 0 0 0 0 0 4 0 0 0 0 0 0 0 0 52 580 651 487 1113 470 938 1014 1295 1054 797 626 391 263 102
0 0 0 0 0 0 0 0 0 0 0 0 1 1 0 0 0 0 0 0 0 51 78 82 81 73 70 71 68 50 3 44 0 0 0 0 0 0 0 0 0 0 0 0 0 0 0 0 0 0 190 677 924 1140 1067 892 974 1124 1200 972 730 352 192
0 0 0 0 0 1 0 2 0 0 0 0 0 0 1 1 0 0 0 0 0 0 0 20 83 58 0 0 0 0 0 0 0 0 0 0 0 0 0 0 0 0 0 0 0 0 0 0 0 0 0 0 335 0 142 247 634 387 416 502 535 669 660
0 0 0 0 0 0 0 0 0 2 2 0 0 0 0 0 0 0 0 0 0 0 0 0 0 0 0 3 2 0 0 0 0 0 0 0 0 0 0 0 0 0 0 0 0 0 0 0 0 1 0 0 0 0 0 0 0 138 310 250 431 468 502
0 1 1 1 0 0 0 0 0 0 0 0 0 0 0 0 0 0 0 0 0 0 0 0 0 0 0 0 1 4 1 0 0 0 0 0 0 0 0 0 0 0 0 0 0 0 0 0 0 0 0 0 0 0 0 0 0 0 18 80 80 125 130
0 0 0 0 0 0 0 0 0 0 0 0 0 0 0 0 0 0 0 0 0 0 0 0 0 0 0 0 0 0 0 0 0 0 0 0 2 0 0 0 0 0 0 0 0 0 0 0 0 0 0 0 0 0 1 2 0 0 0 1 9 37 58